Tracking 26894 objects as of 2-Feb-2023
HD Live streaming from Space Station
objects crossing your sky now

SL-12 R/B(2)

Track SL-12 R/B(2) now!


NORAD ID: 36118
Int'l Code: 2009-070H
Perigee: 19,037.9 km
Apogee: 19,196.2 km
Inclination: 64.4 °
Period: 674.9 minutes
Semi major axis: 25488 km
RCS: 6.3096 m2 (large)
Launch date: December 14, 2009
Source: Commonwealth of Independent States (former USSR) (CIS)
Launch site: TYURATAM MISSILE AND SPACE COMPLEX (TTMTR)

Note: This is a ROCKET BODY
Your satellite tracking list
Your tracking list is empty




NASA's NSSDC Master Catalog

Two Line Element Set (TLE):
1 36118U 09070H   23032.45746515 -.00000043  00000-0  00000-0 0  9990
2 36118  64.4101 112.6474 0031050 201.9907 243.0810  2.13352588102311
Source of the keplerian elements: AFSPC